STARLINK-2303, 47981

Orbit data source: Space-Track

STARLINK-2303, 47981 is a payload satellite owned by SpaceX/Seattle (US) in LEO that was launched on Wed, 24 Mar 2021 UTC via an FALCON 9 launch vehicle from the Air Force Eastern Test Range (AFETR). Payload-class satellites include a variety of spacecraft equipped with specific instruments for various scientific and technological missions. These include communications satellites like Starlink; space stations such as the ISS; scientific satellites like the Hubble; Earth observation satellites from companies like Planet Labs, Umbra, and HawkEye 360; GPS; miniature CubeSats for education and research; and military/defense satellites.

Loading next visibility...
Identifier
47981, 2021-024E
Orbit
LEO
Country
Flag of USUS
Related business
Manufacturer
SpaceX/Seattle
Mission
Operational Commercial Communications
Bus & Motor
STARLINK, Unknown motor
Mass
260 kg wet, ~248 kg dry
Launch date (UTC)
2021-03-24 (5 years ago)
Launch vehicle
FALCON 9
Launch site
Air Force Eastern Test Range (AFETR)
Object type
Payload
Rocket body
Debris
Shape & HBR
Box + 1 Pan, 10.1 m
Radar Cross Section
13.562 m², Large (>1 m²)

Expand to show TLE details & history
Last TLE update: 12 hours ago

TLE from 12 hours ago
0 STARLINK-2303
1 47981U 21024E   26130.04065050  .00001324  00000-0  54418-4 0  9996
2 47981  53.1606  47.1716 0001242  82.6542 277.4600 15.31703379284025
Epoch: 2026-05-10T00:58Z
TLE epoch observation values (Epoch: 2026-05-10T00:58:32.203Z)
Latitude
-0.00005°
Longitude
164.68795°
Altitude
471.52 km
Speed
7.632 km/s
True Right ascension
03h 08m 41s
True Declination
0° 00' 00"
Sunlit
Object was in daylight at epoch
Visualization orbit readout
Latitude
Unknown
Longitude
Unknown
Altitude
Unknown
Speed
Unknown
Apparent Right ascension
Unknown
Apparent Declination
Unknown
Sunlit
N/A
Visualization observer readout
Local Sidereal Time
21:27:36
Azimuth
Unknown
Elevation
Unknown
Doppler factor
Unknown
Orbital elements
Apogee altitude
471.837 km
Perigee altitude
470.136 km
Semi-major axis
6,849.123 km
Eccentricity
0.00012
Inclination
53.1606°
RAAN
47.1716°
Arg. of periapsis
82.6542°
True anomaly
277.44589°
Mean anomaly
277.46°
Eccentric anomaly
277.45294°
Mean motion
3.82905 °/min
Orbital period
94.02 mins
BSTAR
0.000054418
Loading maneuver chart data...
Computing Atmospheric mass density...

Documentation

Showing up to 5 results
|